Regional Weather Roundup
Issued by NWS

Home | Current Version | Previous Version | Graphics & Text | Print | Product List | Glossary On
Versions: 1 2 3 4 5 6 7 8 9 10 11 12 13 14 15 16 17 18 19 20 21 22 23 24 25 26 27 28 29 30 31 32 33 34 35 36 37 38 39 40 41 42 43 44 45 46 47 48 49 50
000
ASUS43 KLMK 201702
RWRKY
KENTUCKY REGIONAL WEATHER ROUNDUP
NATIONAL WEATHER SERVICE LOUISVILLE KY
1200 PM EST FRI JAN 20 2017

NOTE "FAIR" INDICATES FEW OR NO CLOUDS BELOW 12,000 FEET
WITH NO SIGNIFICANT WEATHER AND/OR OBSTRUCTIONS TO VISIBILITY.

KYZ001>023-026-027-061>063-070>075-201800-
WESTERN AND SOUTH CENTRAL KENTUCKY

CITY           SKY/WX    TMP DP  RH WIND       PRES   REMARKS
PADUCAH        CLOUDY    57  53  86 S6        29.73S
HENDERSON      SUNNY     61  52  72 S12       29.73F
OWENSBORO      PTSUNNY   60  52  74 SW14      29.75F
HOPKINSVILLE   PTSUNNY   61  55  80 S17       29.77F
BOWLING GREEN  CLOUDY    61  52  72 MISG      29.79S
GLASGOW        NOT AVBL
$$

KYZ024-025-028>034-038-045-046-053-201800-
NORTH CENTRAL KENTUCKY

CITY           SKY/WX    TMP DP  RH WIND       PRES   REMARKS
LOUISVILLE/SDF CLOUDY    60  50  69 SW20G26   29.74F
LOUISVILLE/LOU CLOUDY    60  51  72 SW13G20   29.75F
FORT KNOX      CLOUDY    58  51  77 SW12      29.74F
$$

KYZ035>037-039>044-047>052-055>060-089>105-201800-
NORTHEAST KENTUCKY

CITY           SKY/WX    TMP DP  RH WIND       PRES   REMARKS
LEXINGTON      CLOUDY    58  52  80 SW12      29.77F
COVINGTON      CLOUDY    57  53  86 SW9G16    29.72F
FRANKFORT      CLOUDY    60  51  72 SW15G23   29.75S
$$

KYZ054-064>069-076>088-106>120-201800-
SOUTHEAST KENTUCKY

CITY           SKY/WX    TMP DP  RH WIND       PRES   REMARKS
JACKSON        CLOUDY    59  53  80 VRB3      29.81F
LONDON         MOSUNNY   61  52  72 SW8G17    29.81F
SOMERSET       MOSUNNY   59  52  77 SW14G20   29.82F
MIDDLESBORO    CLOUDY    61  55  81 S8        29.84F
MONTICELLO     CLOUDY    60  54  80 SW10G23   29.83F
$$





USA.gov is the U.S. government's official web portal to all federal, state and local government web resources and services.